Weather History for Rock Hill, SC

Change the Weather History Date:

Wednesday, January 9, 2013

  Actual Average Record
Temperature  
Mean Temperature 50 °F -  
Max Temperature 64 °F 47 °F 73 °F (1949)
Min Temperature 37 °F 30 °F 4 °F (1970)
Degree Days  
Heating Degree Days 14    
Moisture  
Dew Point 45 °F    
Average Humidity 78    
Maximum Humidity 97    
Minimum Humidity 56    
Precipitation  
Precipitation 0.00 in - - ()
Sea Level Pressure  
Sea Level Pressure 30.41 in    
Wind  
Wind Speed 3 mph (WNW)    
Max Wind Speed 7 mph    
Max Gust Speed -    
Visibility 9 miles    
Events      
Averages and records for this station are not official NWS values.
T = Trace of Precipitation, MM = Missing Value Source: NWS Daily Summary

Daily Weather History Graph

Daily Weather History Graph

Search for Another Location

Airport:

Trip Planner

Search our weather history database for the weather conditions in past years. The results will help you decide how hot, cold, wet, or windy it might be!

Date:

Astronomy

Jan. 09, 2013 Rise Set
Actual Time 7:32 AM EST 5:30 PM EST
Civil Twilight 7:04 AM EST 5:58 PM EST
Nautical Twilight 6:33 AM EST 6:29 PM EST
Astronomical Twilight 6:03 AM EST 7:00 PM EST
Moon 5:10 AM EST (1/9) 3:30 PM EST (1/9)
Length of Visible Light 10h 53m
Length of Day
9h 57m
Waning Crescent, 6% of the Moon is Illuminated
Jan 9
Waning Crescent
Jan 11
New
Jan 18
First Quarter
Jan 26
Full
Feb 3
Last Quarter

Hourly Weather History & Observations

Time (EST) Temp. Windchill Dew Point Humidity Pressure Visibility Wind Dir Wind Speed Gust Speed Precip Events Conditions
1:54 AM 42.1 °F 40.2 °F 37.9 °F 85% 30.40 in 8.0 mi NW 3.5 mph - N/A   Clear
2:54 AM 39.9 °F 37.8 °F 37.0 °F 89% 30.40 in 8.0 mi North 3.5 mph - N/A   Clear
3:54 AM 41.0 °F 39.0 °F 37.9 °F 89% 30.40 in 7.0 mi NE 3.5 mph - N/A   Clear
4:54 AM 39.0 °F - 37.0 °F 93% 30.39 in 6.0 mi Calm Calm - N/A   Clear
5:54 AM 37.0 °F - 36.0 °F 96% 30.41 in 6.0 mi Calm Calm - N/A   Clear
6:54 AM 37.9 °F 35.5 °F 36.0 °F 93% 30.41 in 6.0 mi North 3.5 mph - N/A   Clear
8:54 AM 43.0 °F - 42.1 °F 97% 30.45 in 4.0 mi Calm Calm - N/A   Partly Cloudy
9:54 AM 52.0 °F - 42.1 °F 69% 30.46 in 7.0 mi NE 4.6 mph - N/A   Clear
10:54 AM 57.0 °F - 44.1 °F 62% 30.45 in 9.0 mi SE 3.5 mph - N/A   Overcast
11:54 AM 61.0 °F - 46.9 °F 60% 30.43 in 10.0 mi WSW 5.8 mph - N/A   Clear
12:54 PM 64.0 °F - 48.0 °F 56% 30.39 in 10.0 mi WSW 6.9 mph - N/A   Clear
1:54 PM 64.0 °F - 48.0 °F 56% 30.39 in 10.0 mi West 4.6 mph - N/A   Clear
2:54 PM 64.0 °F - 48.0 °F 56% 30.38 in 10.0 mi Calm Calm - N/A   Clear
3:54 PM 63.0 °F - 48.9 °F 60% 30.39 in 10.0 mi WNW 3.5 mph - N/A   Clear
4:54 PM 60.1 °F - 50.0 °F 69% 30.40 in 10.0 mi Calm Calm - N/A   Clear
5:54 PM 57.9 °F - 50.0 °F 75% 30.41 in 10.0 mi Calm Calm - N/A   Unknown
6:54 PM 54.0 °F - 48.9 °F 83% 30.42 in 10.0 mi SSW 3.5 mph - N/A   Clear
7:54 PM 54.0 °F - 50.0 °F 86% 30.41 in 10.0 mi SSW 3.5 mph - N/A   Clear
8:54 PM 53.1 °F - 48.9 °F 86% 30.40 in 10.0 mi North 3.5 mph - N/A   Clear
9:54 PM 53.1 °F - 48.0 °F 83% 30.42 in 10.0 mi Calm Calm - N/A   Clear
10:54 PM 51.1 °F - 48.0 °F 89% 30.43 in 9.0 mi SW 3.5 mph - N/A   Clear
11:54 PM 51.1 °F - 48.0 °F 89% 30.45 in 10.0 mi Calm Calm - N/A   Clear